| time (UTC) | temp F | wind direction | speed MPH | gust MPH | rain 1hr in | rain 24hr in | rain mn in | humidity % | barometer mb |
| 20260904032515 | 69 | 68 | 4.0 | 8.0 | 0.03 | 0.43 | 0.43 | 96 | 1016.1 |
| 20260904031515 | 69 | 45 | 4.0 | 6.0 | 0.05 | 0.43 | 0.43 | 96 | 1016.5 |
| 20260904030515 | 69 | 68 | 4.0 | 7.0 | 0.06 | 0.43 | 0.43 | 97 | 1016.3 |
| 20260904025555 | 69 | 90 | 6.0 | 10.0 | 0.07 | 0.43 | 0.43 | 97 | 1016.1 |
| 20260904024536 | 69 | 90 | 7.0 | 9.0 | 0.06 | 0.42 | 0.42 | 97 | 1016.1 |
| 20260904023535 | 69 | 90 | 3.0 | 6.0 | 0.05 | 0.41 | 0.41 | 96 | 1016.9 |
| 20260904022515 | 69 | 90 | 1.0 | 3.0 | 0.04 | 0.40 | 0.40 | 96 | 1017.4 |
| 20260904021515 | 69 | 45 | 1.0 | 2.0 | 0.02 | 0.38 | 0.38 | 96 | 1017.4 |
| 20260904020515 | 69 | 338 | 2.0 | 4.0 | 0.01 | 0.37 | 0.37 | 96 | 1017.4 |
| 20260904015516 | 69 | 23 | 2.0 | 4.0 | 0.00 | 0.36 | 0.36 | 96 | 1017.1 |
| 20260904014515 | 69 | 0.0 | 0.0 | 0.00 | 0.36 | 0.36 | 96 | 1016.9 | |
| 20260904013517 | 69 | 0.0 | 1.0 | 0.00 | 0.36 | 0.36 | 96 | 1016.7 | |
| 20260904012537 | 69 | 0.0 | 1.0 | 0.00 | 0.36 | 0.36 | 95 | 1016.3 | |
| 20260904011538 | 69 | 68 | 2.0 | 4.0 | 0.00 | 0.36 | 0.36 | 95 | 1016.0 |
| 20260904010517 | 69 | 45 | 2.0 | 4.0 | 0.00 | 0.36 | 0.36 | 96 | 1015.9 |
| 20260904005517 | 69 | 68 | 1.0 | 2.0 | 0.00 | 0.36 | 0.36 | 95 | 1015.6 |
| 20260904004518 | 70 | 68 | 2.0 | 5.0 | 0.00 | 0.36 | 0.36 | 95 | 1015.6 |
| 20260904003517 | 70 | 68 | 3.0 | 5.0 | 0.00 | 0.36 | 0.36 | 95 | 1015.6 |
| 20260904002538 | 70 | 68 | 2.0 | 4.0 | 0.00 | 0.36 | 0.36 | 95 | 1015.6 |
| 20260904001518 | 70 | 23 | 1.0 | 2.0 | 0.00 | 0.36 | 0.36 | 95 | 1015.7 |
| 20260904000517 | 71 | 45 | 2.0 | 4.0 | 0.00 | 0.36 | 0.36 | 94 | 1015.8 |
| 20260903235540 | 71 | 45 | 1.0 | 4.0 | 0.00 | 0.36 | 0.36 | 94 | 1015.9 |
| 20260903234517 | 71 | 45 | 3.0 | 5.0 | 0.00 | 0.36 | 0.36 | 94 | 1015.6 |
| 20260903233518 | 72 | 68 | 2.0 | 5.0 | 0.00 | 0.36 | 0.36 | 93 | 1015.5 |
| 20260903232518 | 72 | 68 | 2.0 | 5.0 | 0.00 | 0.36 | 0.36 | 93 | 1015.6 |
| 20260903231518 | 72 | 68 | 3.0 | 4.0 | 0.00 | 0.36 | 0.36 | 93 | 1015.8 |
| 20260903230519 | 73 | 23 | 3.0 | 5.0 | 0.00 | 0.36 | 0.36 | 92 | 1015.8 |
| 20260903225517 | 73 | 68 | 2.0 | 4.0 | 0.00 | 0.36 | 0.36 | 91 | 1015.7 |
| 20260903224517 | 74 | 23 | 2.0 | 4.0 | 0.00 | 0.36 | 0.36 | 91 | 1015.8 |
| 20260903223557 | 74 | 23 | 3.0 | 4.0 | 0.00 | 0.36 | 0.36 | 91 | 1015.8 |
| 20260903222537 | 74 | 68 | 1.0 | 3.0 | 0.00 | 0.36 | 0.36 | 90 | 1015.4 |
| 20260903221517 | 74 | 45 | 2.0 | 3.0 | 0.00 | 0.36 | 0.36 | 91 | 1015.2 |
| 20260903220517 | 75 | 45 | 2.0 | 5.0 | 0.00 | 0.36 | 0.36 | 89 | 1015.1 |
| 20260903215517 | 75 | 23 | 1.0 | 2.0 | 0.00 | 0.36 | 0.36 | 87 | 1015.3 |
| 20260903214538 | 75 | 315 | 1.0 | 3.0 | 0.00 | 0.36 | 0.36 | 87 | 1015.5 |
| 20260903213538 | 75 | 23 | 1.0 | 3.0 | 0.00 | 0.36 | 0.36 | 88 | 1015.4 |
| 20260903212517 | 75 | 23 | 3.0 | 6.0 | 0.00 | 0.36 | 0.36 | 89 | 1015.0 |
| 20260903211538 | 75 | 45 | 4.0 | 8.0 | 0.00 | 0.36 | 0.36 | 88 | 1015.2 |
| 20260903210517 | 75 | 23 | 3.0 | 5.0 | 0.00 | 0.36 | 0.36 | 86 | 1015.3 |
| 20260903205517 | 76 | 338 | 4.0 | 7.0 | 0.00 | 0.36 | 0.36 | 85 | 1015.3 |
| 20260903204517 | 75 | 338 | 2.0 | 4.0 | 0.00 | 0.36 | 0.36 | 86 | 1015.6 |
| 20260903203517 | 75 | 0 | 3.0 | 6.0 | 0.00 | 0.36 | 0.36 | 86 | 1015.7 |
| 20260903202517 | 75 | 338 | 2.0 | 4.0 | 0.00 | 0.36 | 0.36 | 86 | 1015.9 |
| 20260903201537 | 75 | 45 | 3.0 | 6.0 | 0.00 | 0.36 | 0.36 | 86 | 1015.8 |
| 20260903200517 | 76 | 338 | 2.0 | 5.0 | 0.00 | 0.36 | 0.36 | 87 | 1015.9 |
| 20260903195517 | 75 | 23 | 4.0 | 8.0 | 0.00 | 0.36 | 0.36 | 87 | 1015.9 |
| 20260903194538 | 76 | 45 | 1.0 | 4.0 | 0.00 | 0.36 | 0.36 | 84 | 1016.2 |
| 20260903193539 | 76 | 315 | 1.0 | 5.0 | 0.00 | 0.36 | 0.36 | 84 | 1016.3 |
| 20260903192517 | 75 | 90 | 3.0 | 6.0 | 0.00 | 0.36 | 0.36 | 86 | 1016.0 |
| 20260903191517 | 75 | 90 | 2.0 | 5.0 | 0.00 | 0.36 | 0.36 | 87 | 1016.0 |
| 20260903190517 | 74 | 90 | 2.0 | 4.0 | 0.00 | 0.36 | 0.36 | 90 | 1015.9 |
| 20260903185516 | 74 | 90 | 3.0 | 5.0 | 0.00 | 0.36 | 0.36 | 88 | 1016.0 |
| 20260903184517 | 74 | 90 | 4.0 | 7.0 | 0.00 | 0.36 | 0.36 | 89 | 1016.1 |
| 20260903183542 | 74 | 90 | 2.0 | 5.0 | 0.00 | 0.36 | 0.36 | 89 | 1016.1 |
| 20260903182517 | 73 | 90 | 5.0 | 9.0 | 0.00 | 0.36 | 0.36 | 90 | 1016.0 |
| 20260903181517 | 73 | 90 | 4.0 | 7.0 | 0.00 | 0.36 | 0.36 | 91 | 1016.0 |
| 20260903180517 | 73 | 90 | 7.0 | 10.0 | 0.00 | 0.36 | 0.36 | 91 | 1016.1 |
| 20260903175539 | 73 | 90 | 4.0 | 8.0 | 0.00 | 0.36 | 0.36 | 91 | 1016.2 |
| 20260903174517 | 72 | 45 | 3.0 | 5.0 | 0.00 | 0.36 | 0.36 | 91 | 1016.5 |
| 20260903173537 | 72 | 45 | 6.0 | 10.0 | 0.00 | 0.36 | 0.36 | 93 | 1015.9 |
| 20260903172518 | 71 | 45 | 7.0 | 10.0 | 0.00 | 0.36 | 0.36 | 93 | 1015.9 |
| 20260903171517 | 72 | 45 | 6.0 | 9.0 | 0.00 | 0.36 | 0.36 | 94 | 1015.9 |
| 20260903170517 | 71 | 45 | 4.0 | 7.0 | 0.00 | 0.36 | 0.36 | 94 | 1015.7 |
| 20260903165516 | 71 | 45 | 4.0 | 8.0 | 0.00 | 0.36 | 0.36 | 93 | 1015.4 |
| 20260903164517 | 71 | 45 | 4.0 | 7.0 | 0.00 | 0.36 | 0.36 | 94 | 1015.3 |
| 20260903163517 | 70 | 45 | 4.0 | 7.0 | 0.00 | 0.36 | 0.36 | 95 | 1015.2 |
| 20260903162517 | 70 | 23 | 5.0 | 8.0 | 0.05 | 0.36 | 0.36 | 95 | 1015.7 |
| 20260903161537 | 70 | 23 | 5.0 | 8.0 | 0.05 | 0.36 | 0.36 | 95 | 1016.0 |
| 20260903160516 | 69 | 338 | 4.0 | 7.0 | 0.07 | 0.36 | 0.36 | 95 | 1016.1 |
| 20260903155516 | 69 | 315 | 3.0 | 6.0 | 0.21 | 0.36 | 0.36 | 95 | 1016.6 |
| 20260903154516 | 69 | 0.0 | 1.0 | 0.34 | 0.36 | 0.36 | 96 | 1016.8 | |
| 20260903153516 | 69 | 248 | 1.0 | 2.0 | 0.36 | 0.36 | 0.36 | 96 | 1016.8 |
| 20260903152517 | 69 | 248 | 1.0 | 3.0 | 0.31 | 0.31 | 0.31 | 95 | 1016.7 |
| 20260903151516 | 69 | 0.0 | 1.0 | 0.31 | 0.31 | 0.31 | 95 | 1016.3 | |
| 20260903150556 | 69 | 315 | 1.0 | 3.0 | 0.29 | 0.29 | 0.29 | 94 | 1016.0 |
| 20260903150016 | 69 | 23 | 3.0 | 5.0 | 0.26 | 0.26 | 0.25 | 94 | 1015.3 |
| 20260903145016 | 70 | 270 | 1.0 | 3.0 | 0.06 | 0.06 | 0.06 | 91 | 1016.1 |
| 20260903144017 | 71 | 0.0 | 3.0 | 0.01 | 0.01 | 0.01 | 90 | 1015.8 | |
| 20260903143017 | 71 | 0.0 | 0.0 | 0.00 | 0.00 | 0.00 | 89 | 1015.7 | |
| 20260903142017 | 71 | 90 | 2.0 | 4.0 | 0.00 | 0.01 | 0.00 | 90 | 1015.7 |
| 20260903141016 | 71 | 0.0 | 2.0 | 0.00 | 0.01 | 0.00 | 91 | 1015.6 | |
| 20260903140036 | 71 | 68 | 1.0 | 3.0 | 0.00 | 0.01 | 0.00 | 91 | 1015.8 |
| 20260903135016 | 71 | 68 | 2.0 | 5.0 | 0.00 | 0.01 | 0.00 | 91 | 1015.7 |
| 20260903134016 | 71 | 68 | 3.0 | 7.0 | 0.00 | 0.01 | 0.00 | 91 | 1015.7 |
| 20260903133036 | 71 | 68 | 4.0 | 6.0 | 0.00 | 0.01 | 0.00 | 92 | 1015.4 |
| 20260903132016 | 70 | 68 | 3.0 | 6.0 | 0.00 | 0.01 | 0.00 | 93 | 1015.4 |
| 20260903131016 | 70 | 68 | 2.0 | 4.0 | 0.00 | 0.01 | 0.00 | 94 | 1015.5 |
| 20260903130036 | 70 | 68 | 3.0 | 8.0 | 0.00 | 0.02 | 0.00 | 95 | 1015.4 |
| 20260903125036 | 70 | 45 | 3.0 | 6.0 | 0.00 | 0.02 | 0.00 | 96 | 1015.5 |
| 20260903124016 | 69 | 68 | 2.0 | 5.0 | 0.00 | 0.02 | 0.00 | 95 | 1015.5 |
| 20260903123016 | 69 | 68 | 2.0 | 4.0 | 0.00 | 0.03 | 0.00 | 95 | 1015.4 |
| 20260903122036 | 69 | 68 | 2.0 | 4.0 | 0.00 | 0.03 | 0.00 | 95 | 1015.6 |
| 20260903121016 | 69 | 68 | 3.0 | 5.0 | 0.00 | 0.03 | 0.00 | 96 | 1015.6 |
| 20260903120016 | 69 | 45 | 4.0 | 7.0 | 0.00 | 0.03 | 0.00 | 95 | 1015.6 |
| 20260903115016 | 69 | 68 | 3.0 | 5.0 | 0.00 | 0.03 | 0.00 | 96 | 1015.6 |
| 20260903114017 | 69 | 45 | 3.0 | 5.0 | 0.00 | 0.03 | 0.00 | 96 | 1015.7 |
| 20260903113037 | 69 | 68 | 1.0 | 3.0 | 0.00 | 0.05 | 0.00 | 96 | 1015.8 |
| 20260903112016 | 69 | 68 | 1.0 | 3.0 | 0.00 | 0.05 | 0.00 | 96 | 1015.6 |
| 20260903111016 | 69 | 68 | 1.0 | 3.0 | 0.00 | 0.05 | 0.00 | 96 | 1015.6 |
| 20260903110016 | 69 | 45 | 1.0 | 2.0 | 0.00 | 0.05 | 0.00 | 97 | 1015.7 |
| 20260903105016 | 68 | 45 | 2.0 | 4.0 | 0.00 | 0.05 | 0.00 | 97 | 1015.7 |
| 20260903104037 | 68 | 68 | 1.0 | 3.0 | 0.00 | 0.05 | 0.00 | 97 | 1015.6 |
| 20260903103037 | 68 | 0.0 | 1.0 | 0.00 | 0.05 | 0.00 | 97 | 1015.7 | |
| 20260903102016 | 68 | 0.0 | 1.0 | 0.00 | 0.06 | 0.00 | 97 | 1015.7 | |
| 20260903101016 | 68 | 0.0 | 1.0 | 0.00 | 0.07 | 0.00 | 97 | 1015.7 | |
| 20260903100016 | 68 | 45 | 1.0 | 3.0 | 0.00 | 0.16 | 0.00 | 97 | 1015.6 |
| 20260903095017 | 68 | 45 | 1.0 | 3.0 | 0.00 | 0.19 | 0.00 | 97 | 1015.6 |
| 20260903094057 | 68 | 0.0 | 2.0 | 0.00 | 0.28 | 0.00 | 98 | 1015.6 | |
| 20260903093057 | 68 | 23 | 1.0 | 2.0 | 0.00 | 0.43 | 0.00 | 98 | 1015.7 |
| 20260903092037 | 68 | 0.0 | 0.0 | 0.00 | 0.45 | 0.00 | 98 | 1015.5 | |
| 20260903091016 | 68 | 23 | 1.0 | 2.0 | 0.00 | 0.45 | 0.00 | 98 | 1015.4 |
| 20260903090016 | 67 | 0 | 1.0 | 3.0 | 0.00 | 0.45 | 0.00 | 98 | 1015.3 |
| 20260903085036 | 67 | 0.0 | 1.0 | 0.00 | 0.45 | 0.00 | 98 | 1015.2 | |
| 20260903084016 | 67 | 0.0 | 0.0 | 0.00 | 0.45 | 0.00 | 98 | 1015.1 | |
| 20260903083036 | 67 | 0.0 | 0.0 | 0.00 | 0.45 | 0.00 | 98 | 1015.2 | |
| 20260903082016 | 67 | 0.0 | 0.0 | 0.00 | 0.45 | 0.00 | 98 | 1015.1 | |
| 20260903081016 | 67 | 0.0 | 0.0 | 0.00 | 0.45 | 0.00 | 98 | 1015.2 | |
| 20260903080016 | 67 | 0.0 | 0.0 | 0.00 | 0.45 | 0.00 | 98 | 1015.2 | |
| 20260903075016 | 67 | 0.0 | 1.0 | 0.00 | 0.45 | 0.00 | 98 | 1015.2 | |
| 20260903074016 | 67 | 0.0 | 0.0 | 0.00 | 0.45 | 0.00 | 98 | 1015.2 | |
| 20260903073016 | 67 | 0.0 | 0.0 | 0.00 | 0.45 | 0.00 | 98 | 1015.1 | |
| 20260903072016 | 67 | 0.0 | 0.0 | 0.00 | 0.45 | 0.00 | 98 | 1015.2 | |
| 20260903071016 | 68 | 0.0 | 0.0 | 0.00 | 0.45 | 0.00 | 98 | 1015.3 | |
| 20260903070017 | 68 | 0.0 | 0.0 | 0.00 | 0.45 | 0.00 | 97 | 1015.3 | |
| 20260903065035 | 68 | 0.0 | 0.0 | 0.00 | 0.45 | 0.00 | 97 | 1015.3 | |
| 20260903064016 | 68 | 0.0 | 0.0 | 0.00 | 0.45 | 0.00 | 97 | 1015.3 | |
| 20260903063016 | 68 | 0.0 | 0.0 | 0.00 | 0.45 | 0.00 | 97 | 1015.4 | |
| 20260903062016 | 68 | 0.0 | 0.0 | 0.00 | 0.45 | 0.00 | 97 | 1015.4 | |
| 20260903061015 | 68 | 0.0 | 0.0 | 0.00 | 0.45 | 0.00 | 97 | 1015.4 | |
| 20260903060036 | 68 | 0.0 | 0.0 | 0.00 | 0.45 | 0.00 | 97 | 1015.4 | |
| 20260903055015 | 69 | 0.0 | 0.0 | 0.00 | 0.45 | 0.00 | 97 | 1015.2 | |
| 20260903054016 | 68 | 0.0 | 0.0 | 0.00 | 0.45 | 0.00 | 97 | 1015.1 | |
| 20260903053016 | 69 | 0.0 | 0.0 | 0.00 | 0.45 | 0.00 | 97 | 1015.2 | |
| 20260903052015 | 69 | 0.0 | 0.0 | 0.00 | 0.45 | 0.00 | 97 | 1015.2 | |
| 20260903051015 | 69 | 0.0 | 0.0 | 0.00 | 0.45 | 0.00 | 96 | 1015.0 | |
| 20260903050016 | 69 | 0.0 | 0.0 | 0.00 | 0.45 | 0.45 | 96 | 1015.0 | |
| 20260903045017 | 70 | 0.0 | 0.0 | 0.00 | 0.45 | 0.45 | 96 | 1015.0 | |
| 20260903044016 | 70 | 0.0 | 1.0 | 0.00 | 0.45 | 0.45 | 96 | 1015.0 | |
| 20260903043016 | 70 | 0.0 | 1.0 | 0.00 | 0.45 | 0.45 | 97 | 1015.0 | |
| 20260903042016 | 70 | 0.0 | 0.0 | 0.00 | 0.45 | 0.45 | 97 | 1015.0 | |
| 20260903041015 | 70 | 0.0 | 0.0 | 0.00 | 0.45 | 0.45 | 97 | 1015.0 | |
| 20260903040016 | 70 | 0.0 | 0.0 | 0.00 | 0.45 | 0.45 | 97 | 1014.9 | |
| 20260903035015 | 70 | 0.0 | 0.0 | 0.00 | 0.45 | 0.45 | 97 | 1014.9 | |
| 20260903034015 | 70 | 0.0 | 0.0 | 0.00 | 0.45 | 0.45 | 97 | 1015.0 | |
| 20260903033015 | 70 | 0.0 | 0.0 | 0.00 | 0.45 | 0.45 | 97 | 1015.0 |